Date String (YYYY-MM-DD hh:mm:ss) UTC,Instrument flags,Ambient pressure (hPa),Sample flow (lpm),Bypass flow (lpm),Sample temperature (°C),Ambient temperature (°C),ASC tube jacket temperature (°C),LED temperature (°C),Box temperature (°C),Sample RH (%),Span deviation,Mass concentration (μg/m³),Mass concentration (μg/m³),Mass concentration (μg/m³)
DateTimeUTC,F1_M11,P_M11,Q1_M11,Q2_M11,T1_M11,T2_M11,T3_M11,T4_M11,T5_M11,U1_M11,ZSPAN_M11,X0_M11,X2_M11,X1_M11
2022-01-24 23:00:00,,0821.1,5.00,0.00,21.5,20.9,00.0,30.6,23.2,10.2,0000.0,0007.70,0003.20,0002.30
2022-01-24 23:01:00,,0821.1,5.00,0.00,21.6,20.9,00.0,30.6,23.3,10.2,0000.0,0007.62,0003.19,0002.31
2022-01-24 23:02:00,,0821.1,5.00,0.00,21.6,20.9,00.0,30.6,23.3,10.1,0000.0,0007.70,0003.19,0002.32
2022-01-24 23:03:00,,0821.1,5.00,0.00,21.6,21.0,00.0,30.6,23.3,10.1,0000.0,0007.67,0003.20,0002.32
2022-01-24 23:04:00,,0821.1,4.99,0.00,21.6,21.0,00.0,30.6,23.3,10.0,0000.0,0007.18,0003.22,0002.32
2022-01-24 23:05:00,,0821.1,5.01,0.00,21.6,21.0,00.0,30.6,23.3,09.9,0000.0,0007.49,0003.22,0002.33
2022-01-24 23:06:00,,0821.1,5.01,0.00,21.6,21.0,00.0,30.6,23.3,10.0,0000.0,0007.65,0003.19,0002.33
2022-01-24 23:07:00,,0821.2,4.99,0.00,21.6,21.0,00.0,30.6,23.3,10.0,0000.0,0007.04,0003.15,0002.32
2022-01-24 23:08:00,,0821.2,4.99,0.00,21.6,21.0,00.0,30.6,23.3,10.1,0000.0,0006.93,0003.13,0002.31
2022-01-24 23:09:00,,0821.2,5.01,0.00,21.6,21.0,00.0,30.6,23.4,10.0,0000.0,0006.73,0003.07,0002.30
2022-01-24 23:10:00,,0821.2,5.00,0.00,21.6,21.0,00.0,30.6,23.4,09.9,0000.0,0006.41,0002.98,0002.29
2022-01-24 23:11:00,,0821.2,5.02,0.00,21.6,21.0,00.0,30.6,23.3,09.8,0000.0,0006.26,0002.95,0002.29
2022-01-24 23:12:00,,0821.2,5.00,0.00,21.6,21.0,00.0,30.6,23.3,09.8,0000.0,0006.26,0002.98,0002.29
2022-01-24 23:13:00,,0821.2,5.00,0.00,21.6,21.0,00.0,30.6,23.3,10.0,0000.0,0006.07,0002.96,0002.30
2022-01-24 23:14:00,,0821.2,4.99,0.00,21.6,21.1,00.0,30.6,23.3,10.1,0000.0,0006.38,0002.96,0002.29
2022-01-24 23:15:00,,0821.2,5.00,0.00,21.6,21.1,00.0,30.6,23.3,10.1,0000.0,0006.32,0002.93,0002.29
2022-01-24 23:16:00,,0821.2,5.01,0.00,21.6,21.1,00.0,30.6,23.4,10.2,0000.0,0005.92,0002.98,0002.30
2022-01-24 23:17:00,,0821.2,5.01,0.00,21.6,21.1,00.0,30.6,23.4,10.2,0000.0,0004.99,0003.01,0002.30
2022-01-24 23:18:00,,0821.3,5.00,0.00,21.6,21.1,00.0,30.6,23.4,10.1,0000.0,0005.85,0003.08,0002.33
2022-01-24 23:19:00,,0821.3,4.99,0.00,21.6,21.0,00.0,30.6,23.4,10.3,0000.0,0005.90,0003.11,0002.34
2022-01-24 23:20:00,,0821.3,5.01,0.00,21.6,21.1,00.0,30.6,23.4,10.2,0000.0,0006.04,0003.13,0002.34
2022-01-24 23:21:00,,0821.3,5.00,0.00,21.6,21.1,00.0,30.6,23.4,10.1,0000.0,0006.23,0003.15,0002.35
2022-01-24 23:22:00,,0821.3,4.99,0.00,21.6,21.2,00.0,30.6,23.4,10.2,0000.0,0007.39,0003.14,0002.36
2022-01-24 23:23:00,,0821.3,5.00,0.00,21.7,21.2,00.0,30.6,23.5,10.3,0000.0,0007.63,0003.17,0002.38
2022-01-24 23:24:00,,0821.3,5.00,0.00,21.7,21.2,00.0,30.6,23.5,10.2,0000.0,0008.25,0003.20,0002.38
2022-01-24 23:25:00,,0821.3,4.99,0.00,21.7,21.3,00.0,30.6,23.5,10.2,0000.0,0008.41,0003.20,0002.37
2022-01-24 23:26:00,,0821.3,5.00,0.00,21.7,21.3,00.0,30.6,23.6,10.1,0000.0,0008.82,0003.19,0002.37
2022-01-24 23:27:00,,0821.3,5.00,0.00,21.7,21.3,00.0,30.6,23.6,10.1,0000.0,0009.05,0003.16,0002.36
2022-01-24 23:28:00,,0821.3,5.00,0.00,21.7,21.3,00.0,30.6,23.5,10.1,0000.0,0009.09,0003.17,0002.36
2022-01-24 23:29:00,,0821.3,5.00,0.00,21.7,21.2,00.0,30.6,23.5,10.1,0000.0,0008.71,0003.16,0002.34
2022-01-24 23:30:00,,0821.3,5.01,0.00,21.7,21.2,00.0,30.7,23.5,10.2,0000.0,0008.68,0003.13,0002.32
2022-01-24 23:31:00,,0821.3,4.99,0.00,21.7,21.2,00.0,30.7,23.5,10.0,0000.0,0008.63,0003.10,0002.31
2022-01-24 23:32:00,,0821.3,5.00,0.00,21.7,21.2,00.0,30.7,23.5,10.0,0000.0,0008.58,0003.07,0002.30
2022-01-24 23:33:00,,0821.3,5.00,0.00,21.7,21.3,00.0,30.7,23.5,10.1,0000.0,0008.07,0003.08,0002.28
2022-01-24 23:34:00,,0821.3,5.00,0.00,21.8,21.3,00.0,30.7,23.6,10.1,0000.0,0008.16,0003.02,0002.24
2022-01-24 23:35:00,,0821.4,5.00,0.00,21.8,21.3,00.0,30.7,23.6,10.1,0000.0,0007.54,0002.97,0002.23
2022-01-24 23:36:00,,0821.4,5.00,0.00,21.8,21.4,00.0,30.7,23.7,10.2,0000.0,0007.43,0002.97,0002.23
2022-01-24 23:37:00,,0821.4,5.00,0.00,21.8,21.4,00.0,30.7,23.7,10.2,0000.0,0007.07,0003.01,0002.23
2022-01-24 23:38:00,,0821.4,5.00,0.00,21.9,21.4,00.0,30.7,23.7,10.2,0000.0,0007.67,0003.02,0002.23
2022-01-24 23:39:00,,0821.4,4.99,0.00,21.9,21.5,00.0,30.7,23.7,10.1,0000.0,0007.78,0002.99,0002.21
2022-01-24 23:40:00,,0821.4,5.01,0.00,21.9,21.5,00.0,30.8,23.8,10.0,0000.0,0008.26,0003.00,0002.21
2022-01-24 23:41:00,,0821.4,4.99,0.00,21.9,21.5,00.0,30.8,23.8,10.0,0000.0,0009.09,0002.98,0002.23
2022-01-24 23:42:00,,0821.4,5.00,0.00,21.9,21.5,00.0,30.8,23.8,10.0,0000.0,0009.03,0002.98,0002.24
2022-01-24 23:43:00,,0821.4,5.00,0.00,21.9,21.5,00.0,30.8,23.8,10.0,0000.0,0009.06,0003.00,0002.26
2022-01-24 23:44:00,,0821.3,4.99,0.00,21.9,21.5,00.0,30.8,23.8,10.0,0000.0,0008.94,0003.00,0002.28
2022-01-24 23:45:00,,0821.4,5.00,0.00,22.0,21.5,00.0,30.8,23.8,10.0,0000.0,0008.69,0003.02,0002.29
2022-01-24 23:46:00,,0821.4,4.99,0.00,22.0,21.5,00.0,30.8,23.8,10.0,0000.0,0008.74,0002.99,0002.29
2022-01-24 23:47:00,,0821.4,5.01,0.00,22.0,21.5,00.0,30.8,23.8,09.9,0000.0,0008.72,0002.98,0002.28
2022-01-24 23:48:00,,0821.4,5.01,0.00,22.0,21.5,00.0,30.8,23.8,09.9,0000.0,0009.13,0002.97,0002.28
2022-01-24 23:49:00,,0821.4,4.98,0.00,22.0,21.5,00.0,30.9,23.8,09.9,0000.0,0009.06,0002.92,0002.26
2022-01-24 23:50:00,,0821.4,4.99,0.00,22.0,21.5,00.0,30.9,23.8,09.9,0000.0,0009.11,0002.94,0002.26
2022-01-24 23:51:00,,0821.4,5.00,0.00,22.0,21.6,00.0,30.9,23.8,09.9,0000.0,0008.76,0002.94,0002.25
2022-01-24 23:52:00,,0821.4,5.00,0.00,22.0,21.6,00.0,30.9,23.9,09.9,0000.0,0007.99,0002.95,0002.25
2022-01-24 23:53:00,,0821.4,5.00,0.00,22.0,21.6,00.0,30.9,23.9,09.9,0000.0,0008.01,0002.94,0002.23
2022-01-24 23:54:00,,0821.4,5.00,0.00,22.0,21.6,00.0,30.9,23.9,09.9,0000.0,0008.10,0002.95,0002.22
2022-01-24 23:55:00,,0821.4,5.00,0.00,22.0,21.6,00.0,30.9,23.9,09.9,0000.0,0008.10,0002.97,0002.22
2022-01-24 23:56:00,,0821.4,5.00,0.00,22.1,21.6,00.0,30.9,23.9,09.9,0000.0,0008.61,0002.97,0002.23
2022-01-24 23:57:00,,0821.4,5.00,0.00,22.1,21.6,00.0,30.9,23.9,10.0,0000.0,0009.07,0003.04,0002.24
2022-01-24 23:58:00,,0821.4,4.99,0.00,22.1,21.6,00.0,30.9,23.9,09.9,0000.0,0009.74,0003.03,0002.25
2022-01-24 23:59:00,,0821.4,5.01,0.00,22.1,21.6,00.0,31.0,24.0,09.9,0000.0,0009.24,0003.02,0002.27
